Flag for Nepal Weather past 2 weeks in Kathmandu, Nepal

Now
46 °F

Passing clouds.


Feels Like: 46 °F
Forecast: 38 / 56 °F
Wind: No wind

Location: Kathmandu Airport

Current Time: Jan 26, 2015 at 8:47:24 AM

Latest Report: Jan 26, 2015 at 7:35 AM


Visibility: 1 mi

Pressure: 30.21 "Hg

Humidity: 87%

Dew point: 43 °F

Location of KathmanduLocation

Historic Weather in Kathmandu — Graph

°F

Kathmandu temperature yesterday

Maximum temperature yesterday: 66 °F (at 1:35 PM)
Minimum temperature yesterday: 37 °F (at 7:35 AM)
Average temperature yesterday: 52 °F

Past Weeks' High & Low Weather Summary

 TemperatureHumidityPressure
High66 °F (Jan 11, 2:35 PM)100% (Jan 14, 7:35 AM)30.36 "Hg (Jan 14, 7:35 AM)
Low37 °F (Jan 12, 4:35 AM)26% (Jan 19, 2:35 PM)30.04 "Hg (Jan 11, 2:35 PM)
Average50 °F70%30.16 "Hg
* Reported Jan 11 9:35 AM — Jan 26 7:35 AM, Kathmandu, Weather by CustomWeather, © 2014

Note: Actual official high and low records may vary slightly from our data, if they occured in-between our weather recording intervals... More about our weather records

Advertising

Kathmandu weather history for previous 24 hours

 ConditionsComfort  
Time TempWeatherWind HumidityBarometerVisibility
7:35 AM
Jan 26
46 °FPassing clouds.No wind87%30.21 "Hg1 mi
6:35 AM46 °FPassing clouds.3 mph87%30.18 "Hg4 mi
5:35 AM46 °FPassing clouds.No wind93%30.18 "Hg4 mi
4:35 AM46 °FPassing clouds.No wind87%30.15 "Hg4 mi
3:35 AM46 °FPassing clouds.No wind87%30.18 "Hg4 mi
2:35 AM46 °FPassing clouds.No wind87%30.18 "Hg4 mi
1:35 AM46 °FPassing clouds.No wind82%30.18 "Hg4 mi
12:35 AM46 °FPassing clouds.No wind82%30.21 "Hg4 mi
11:35 PM
Jan 25
48 °FPassing clouds.3 mph66%30.21 "Hg4 mi
10:35 PM48 °FPassing clouds.5 mph66%30.21 "Hg5 mi
9:35 PM52 °FPassing clouds.5 mph62%30.18 "Hg5 mi
8:35 PM54 °FPassing clouds.3 mph82%30.18 "Hg5 mi
7:35 PM55 °FPassing clouds.5 mph72%30.18 "Hg5 mi
6:35 PM57 °FPassing clouds.5 mph63%30.15 "Hg5 mi
5:35 PM59 °FPartly sunny.7 mph55%30.12 "HgN/A
4:35 PM63 °FScattered clouds.7 mph45%30.09 "HgN/A
3:35 PM64 °FPartly sunny.9 mph40%30.09 "HgN/A
2:35 PM66 °FScattered clouds.9 mph32%30.12 "HgN/A
1:35 PM66 °FScattered clouds.6 mph30%30.15 "Hg5 mi
12:35 PM63 °FPartly sunny.3 mph37%30.18 "Hg4 mi
11:35 AM59 °FScattered clouds.3 mph48%30.21 "Hg4 mi
10:35 AM55 °FFog.No wind59%30.21 "Hg2 mi
9:35 AM48 °FFog.No wind76%30.24 "Hg2 mi
8:35 AM43 °FFog.No wind87%30.21 "Hg1 mi
Weather by CustomWeather, © 2014

See weather overviewHow to use our weather pages